This demonstration page uses our WeatherBlox Daily Observations layout. Learn more.

Left ArrowRight Arrow

39.12711, -84.51439

Hourly Observations for July 14, 2021

Temp ( °F °C ) Dew Point ( °F °C ) Humidity (%) Winds ( mph kmh ) Pressure ( in mb ) Visibility ( mi km ) Precip ( " mm )
12:53 am 00:53 Clear 69 20.6 67 19.4 93 93 N N/A 30.16 1021 10 16 N/A
1:53 am 01:53 Partly Cloudy with Mist and Fog 68 20 67 19.4 96 96 N N/A 30.17 1022 6 10 N/A
2:53 am 02:53 Mostly Cloudy 69 20.6 68 20 96 96 N N/A 30.16 1021 10 16 N/A
3:53 am 03:53 Mostly Clear 68 20 67 19.4 96 96 N N/A 30.16 1022 9 14 N/A
4:18 am 04:18 Clear with Mist and Fog 67 19.4 66 18.9 97 97 N N/A 30.18 1022 2 2 N/A
4:29 am 04:29 Clear with Mist and Fog 68 20 67 19.4 96 96 N N/A 30.18 1022 3 5 N/A
4:53 am 04:53 Mostly Clear with Mist and Fog 66 18.9 66 18.9 100 100 SSW 3 6 30.17 1022 5 8 N/A
5:01 am 05:01 Mostly Clear with Mist and Fog 66 18.9 66 18.9 100 100 N N/A 30.18 1022 2 3 N/A
5:09 am 05:09 Mostly Cloudy with Mist and Fog 66 18.9 66 18.9 100 100 N N/A 30.18 1022 2 3 N/A
5:18 am 05:18 Mostly Cloudy with Mist and Fog 67 19.4 66 18.9 97 97 N N/A 30.18 1022 6 10 N/A
5:53 am 05:53 Cloudy 68 20 67 19.4 96 96 N N/A 30.19 1022 7 11 N/A
6:53 am 06:53 Partly Cloudy with Mist and Fog 67 19.4 66 18.9 97 97 N N/A 30.19 1023 5 8 N/A
7:53 am 07:53 Mostly Cloudy 70 21.1 69 20.6 97 97 S 3 6 30.20 1023 8 13 N/A
8:32 am 08:32 Partly Cloudy 72 22.2 69 20.6 91 91 undefined N/A 30.20 1023 10 16 N/A
8:53 am 08:53 Mostly Cloudy 73 22.8 70 21.1 90 90 S 3 6 30.21 1023 10 16 N/A
9:00 am 09:00 Mostly Cloudy 73 22.8 70 21.1 90 90 S 5 7 30.19 1022 10 16 N/A
9:53 am 09:53 Mostly Cloudy 74 23.3 69 20.6 85 85 N N/A 30.22 1023 10 16 N/A
10:53 am 10:53 Mostly Cloudy 78 25.6 70 21.1 76 76 VRB 3 6 30.22 1023 10 16 N/A
11:53 am 11:53 Mostly Cloudy 80 26.7 71 21.7 74 74 VRB 5 7 30.22 1023 10 16 N/A
12:53 pm 12:53 Mostly Cloudy 80 26.7 68 20 67 67 SW 6 9 30.21 1023 10 16 N/A
1:53 pm 13:53 Partly Cloudy 82 27.8 69 20.6 65 65 SSE 3 6 30.20 1023 10 16 N/A
2:53 pm 14:53 Partly Cloudy 84 28.9 68 20 59 59 SSW 10 17 30.17 1022 10 16 N/A
3:53 pm 15:53 Partly Cloudy 85 29.4 66 18.9 53 53 WSW 7 11 30.15 1021 10 16 N/A
4:53 pm 16:53 Partly Cloudy 85 29.4 67 19.4 55 55 VRB 6 9 30.14 1021 10 16 N/A
5:53 pm 17:53 Partly Cloudy 85 29.4 68 20 57 57 SW 8 13 30.14 1021 10 16 N/A
6:53 pm 18:53 Mostly Sunny 84 28.9 68 20 59 59 SW 7 11 30.13 1020 10 16 N/A
7:53 pm 19:53 Partly Cloudy 81 27.2 70 21.1 69 69 S 5 7 30.12 1020 10 16 N/A
8:53 pm 20:53 Mostly Sunny 76 24.4 70 21.1 82 82 N N/A 30.12 1020 10 16 N/A
9:53 pm 21:53 Clear 74 23.3 70 21.1 88 88 N N/A 30.12 1020 9 14 N/A
10:53 pm 22:53 Mostly Clear 72 22.2 70 21.1 94 94 N N/A 30.14 1021 7 11 N/A
11:53 pm 23:53 Clear with Mist and Fog 71 21.7 70 21.1 96 96 N N/A 30.14 1021 6 10 N/A

Powered by AerisWeather